SCP
0 0 0 0 0 0 0 0 0 0 0 0 0 0 0 0 0 0 0 0 0 0 0 0 0 0 0 0 0 0 0 0 0 0 0 0 0 0 0 0 0 0 0
0 0 0 0 0 0 0 0 0 0 0 0 0 0 0 0 0 0 0 0 0 0 0 0 0 0 0 0 0 0 0 0 0 0 0 0 0 0 0 0 0 0 0
0 0 0 0 0 0 0 0 0 1 0 0 0 0 0 0 0 0 0 0 0 0 0 0 0 0 0 0 0 0 0 0 0 0 0 0 0 0 0 0 0 0 0
0 0 0 0 0 0 0 1 1 1 1 0 0 0 0 0 0 0 0 0 0 0 0 0 0 0 0 0 0 0 0 0 0 0 0 0 0 0 0 0 0 0 0
0 0 0 0 1 1 1 1 1 1 1 1 0 0 0 0 0 0 0 0 0 0 0 0 0 0 0 0 0 0 0 0 0 0 0 0 0 0 0 0 0 0 0
0 0 0 1 1 1 1 1 1 1 1 1 0 0 0 0 0 0 0 0 0 0 0 0 0 0 0 0 0 0 0 0 0 0 0 0 0 0 0 0 0 0 0
0 1 1 1 1 1 1 1 1 1 1 1 1 1 1 0 0 0 0 0 0 0 0 0 0 0 0 0 0 0 0 0 0 0 0 0 0 0 0 0 0 0 0
1 1 1 1 1 1 1 1 1 1 1 1 1 1 1 1 0 0 0 0 0 0 0 0 0 0 0 0 0 0 0 0 0 0 0 0 0 0 0 0 0 0 0
0 0 1 1 1 1 1 1 1 1 1 1 1 1 1 1 1 0 0 0 0 0 0 0 0 0 0 0 0 0 0 0 0 0 0 0 0 0 0 0 0 0 0
0 0 0 1 1 1 1 1 1 1 1 1 1 1 1 1 1 0 0 0 0 0 0 0 0 0 0 0 0 0 0 0 0 0 0 0 0 0 0 0 0 0 0
0 0 1 1 1 1 1 1 1 1 1 1 1 0 0 0 0 0 0 0 0 0 0 0 0 0 0 0 0 0 0 0 0 0 0 0 0 0 0 0 0 0 0
0 1 1 1 1 1 1 1 1 1 1 1 0 0 0 0 0 0 0 0 0 0 0 0 0 0 0 0 0 0 0 0 0 0 0 0 0 0 0 0 0 0 0
1 1 1 1 1 1 1 1 1 1 1 1 1 0 0 0 0 0 0 0 0 0 0 0 0 0 0 0 0 0 0 0 0 0 0 0 0 0 0 0 0 0 0
1 1 1 1 1 1 1 1 1 1 1 1 1 1 1 0 0 0 0 0 0 0 0 0 0 0 0 0 0 0 0 0 0 0 0 0 0 0 0 0 0 1 1
1 1 1 1 1 1 1 1 1 1 1 1 1 1 1 1 1 1 1 1 0 0 0 1 0 0 0 0 0 0 0 0 0 0 0 0 0 0 0 0 0 0 0
1 1 1 1 1 1 1 1 1 1 1 1 1 1 1 1 1 1 1 1 1 0 1 1 1 1 0 0 0 0 0 0 0 0 0 0 0 0 0 0 0 0 0
1 1 1 1 1 1 1 1 1 1 1 1 1 1 1 1 1 1 1 1 1 1 1 1 1 1 1 0 0 0 0 0 0 0 0 0 0 0 0 0 0 0 0
1 1 1 1 1 1 1 1 1 1 1 1 1 1 1 1 1 1 1 1 1 1 1 1 1 1 1 0 0 0 0 0 0 0 0 0 0 0 0 0 0 0 0
1 1 1 1 1 1 1 1 1 1 1 1 1 1 1 1 1 1 1 1 1 1 1 1 1 1 1 0 0 0 0 0 0 0 0 0 0 0 0 0 0 0 0
1 1 1 1 1 1 1 1 1 1 1 1 1 1 1 1 1 1 1 1 1 1 1 1 1 1 1 0 0 0 0 0 0 0 0 0 0 0 0 0 0 0 0
1 1 1 1 1 1 1 1 1 1 1 1 1 1 1 1 1 1 1 1 1 1 1 1 1 1 1 0 0 0 0 0 0 0 0 0 0 0 0 0 0 0 0
1 1 1 1 1 1 1 1 1 1 1 1 1 1 1 1 1 1 1 1 1 1 1 1 1 1 1 1 0 0 0 0 0 0 0 0 0 0 0 0 0 0 0
1 1 1 1 1 1 1 1 1 1 1 1 1 2 1 1 1 1 2 2 2 1 1 1 1 1 1 1 0 0 0 0 0 0 0 0 0 0 0 0 0 0 0
1 1 1 1 1 1 1 1 1 1 1 1 1 1 1 1 1 1 2 1 1 1 1 1 1 1 1 1 1 0 0 0 0 0 0 0 0 0 0 0 0 0 0
2 2 1 1 1 1 1 1 1 1 1 1 1 1 1 1 1 1 1 1 1 1 1 1 1 1 1 1 1 0 0 0 0 0 0 0 0 0 0 0 0 0 0
2 2 2 1 1 2 2 1 1 1 1 1 1 1 1 1 1 1 1 1 1 1 1 1 1 1 0 0 0 0 0 0 0 0 0 0 0 0 0 0 0 0 0
Wind_Speed
9 9 8 8 7 7 7 6 5 4 3 2 2 2 2 2 1 1 1 1 1 1 2 1 1 2 1 2 2 1 2 2 1 2 2 2 3 2 2 2 2 3 3
10 10 9 9 9 8 7 7 6 5 5 3 2 1 1 1 1 0 1 1 1 1 2 1 2 1 1 2 2 2 2 1 1 2 2 2 4 3 2 2 2 2 2
11 11 11 10 10 9 9 7 6 6 5 4 3 2 2 2 2 1 1 1 1 1 1 1 2 2 2 1 2 2 2 2 1 1 1 1 0 1 3 2 2 2 2
11 11 11 11 11 10 9 8 7 6 6 6 4 4 3 2 1 1 0 0 1 1 2 2 2 3 2 2 3 1 2 2 1 1 1 1 1 1 1 2 2 2 2
11 11 11 11 10 9 9 8 8 7 7 6 5 5 4 2 2 1 1 1 1 1 2 2 2 2 2 2 3 2 3 2 2 1 1 1 1 2 2 1 1 2 2
10 10 10 9 9 9 9 9 8 8 7 7 6 5 4 3 2 2 1 2 1 1 1 2 2 3 3 2 3 3 3 2 2 2 1 1 1 1 1 1 1 1 1
10 10 10 10 10 10 9 9 9 8 8 7 6 6 5 4 4 3 2 2 1 1 1 1 2 2 3 3 3 2 2 2 2 2 2 1 2 1 1 1 1 1 2
9 10 10 10 10 10 10 10 10 9 8 8 7 6 5 4 3 3 3 2 2 1 1 2 2 3 3 3 2 3 2 2 2 3 2 2 2 1 2 2 2 2 2
9 10 10 10 10 10 10 10 10 9 8 7 7 6 5 4 3 3 3 2 2 2 2 2 2 2 2 3 3 2 2 2 2 2 2 3 2 2 2 2 3 2 2
8 9 9 9 9 8 8 9 9 8 8 7 7 5 6 5 4 3 2 2 2 2 2 3 2 2 2 2 2 2 2 2 2 2 2 2 2 2 2 3 3 2 2
6 7 7 8 8 8 8 8 9 8 8 7 6 6 5 5 4 3 3 2 2 2 2 3 2 2 2 2 1 2 2 2 2 2 2 1 2 2 1 1 2 1 1
5 5 7 8 8 8 8 7 7 8 7 7 6 6 5 4 4 3 3 2 2 2 2 2 2 2 2 1 2 2 2 1 1 1 1 1 1 1 1 1 1 0 1
4 5 6 7 7 7 7 7 7 7 7 7 7 6 5 4 4 3 3 2 2 2 2 2 2 2 2 1 1 1 1 1 1 1 1 1 1 1 1 1 1 1 1
4 5 5 6 6 7 7 7 7 7 6 6 6 6 5 4 4 3 3 2 2 2 2 1 1 1 1 1 1 1 1 1 1 1 1 1 1 1 1 1 1 1 1
5 5 5 5 6 7 7 7 6 6 6 6 5 5 5 4 4 3 3 2 2 1 1 1 1 1 0 1 1 1 1 0 0 0 1 2 3 5 3 1 0 1 1
5 5 5 5 6 7 8 7 7 6 6 6 6 5 5 4 4 3 3 3 2 1 1 1 1 0 1 4 3 2 0 1 1 1 1 2 3 4 4 4 3 2 1
5 5 6 5 6 7 7 7 7 7 7 6 6 6 5 5 4 4 3 3 3 2 2 1 1 1 2 3 2 2 0 1 2 1 1 1 3 3 3 3 3 3 3
5 5 5 5 5 6 7 7 7 8 7 6 6 5 5 5 5 4 4 3 3 2 2 2 1 1 3 3 2 0 2 2 2 2 2 2 2 2 1 2 3 4 4
4 4 5 5 5 6 7 7 7 7 7 7 6 6 5 5 5 5 4 3 3 3 2 2 2 2 3 3 1 2 3 3 3 3 3 2 3 3 1 3 4 3 3
4 4 5 5 5 6 6 7 7 7 6 6 6 5 5 5 5 5 4 4 3 3 3 3 2 2 3 3 2 2 2 3 3 3 3 6 4 3 2 2 3 3 2
4 4 5 5 4 5 6 7 6 5 5 5 5 5 5 5 5 4 4 4 4 4 3 3 3 3 3 4 3 2 0 1 2 2 2 4 4 3 2 1 1 2 1
5 5 5 5 5 5 7 7 6 5 5 5 5 5 4 4 4 5 4 4 4 5 4 3 3 3 3 3 3 2 2 2 1 1 2 4 4 3 2 2 2 1 2
5 4 5 6 5 5 6 6 6 5 5 5 5 5 5 4 4 5 5 5 5 4 4 4 3 3 3 4 5 4 2 1 1 3 5 4 3 3 3 3 2 3 2
5 4 5 6 6 5 5 5 6 6 6 6 5 5 5 5 4 3 4 3 3 4 4 3 3 3 3 3 3 3 4 4 4 3 5 5 3 2 3 4 3 2 1
4 4 4 5 6 6 6 6 6 6 6 6 6 5 5 4 4 3 1 1 1 0 1 2 3 3 3 3 2 2 2 2 2 2 3 3 3 3 3 2 2 2 2
4 4 4 5 5 6 6 5 6 7 6 6 6 5 4 4 4 4 4 4 3 4 3 3 1 2 4 5 4 2 1 1 2 3 3 2 2 2 2 2 2 2 1
Wind_Direction
182 181 184 185 183 183 185 188 194 187 200 199 206 193 181 186 166 163 127 206 218 224 257 291 250 263 259 279 271 262 225 224 220 207 178 167 162 155 173 188 188 174 183
187 184 186 189 192 190 191 191 196 193 199 190 196 206 189 191 151 122 120 251 223 241 237 279 277 270 269 263 273 267 271 230 192 233 213 185 171 167 161 166 173 163 165
196 189 190 193 194 193 194 195 196 193 197 190 190 174 180 203 180 183 175 221 266 264 291 276 285 283 269 267 279 268 264 266 219 267 284 270 179 150 148 154 146 153 163
200 194 192 193 196 194 190 190 190 192 192 194 198 197 200 198 185 217 140 188 253 276 271 276 281 285 290 286 271 269 274 266 250 194 235 297 348 288 176 154 139 149 163
199 196 194 192 194 191 186 184 182 186 190 196 197 205 209 204 191 193 153 243 209 259 277 275 277 278 281 290 296 304 281 264 269 264 199 205 204 246 263 213 151 147 147
196 194 188 185 187 187 185 183 180 185 188 194 198 208 210 214 215 221 211 221 213 230 263 271 276 273 285 279 273 271 257 272 280 281 271 244 253 243 246 241 218 153 125
188 187 185 184 187 187 187 185 183 187 188 193 200 203 209 211 219 233 216 247 256 234 218 270 274 279 279 275 271 260 270 259 261 266 273 268 270 267 260 243 224 187 163
182 185 186 186 187 186 187 188 186 189 188 193 198 203 207 213 215 230 248 232 260 274 285 260 264 273 278 276 262 262 253 253 260 264 270 264 251 256 245 241 234 218 175
182 185 186 185 186 186 188 190 186 187 188 190 193 199 203 211 220 220 233 236 249 259 250 253 254 266 270 271 258 260 264 265 260 263 240 249 241 234 238 237 239 235 225
182 183 184 185 185 185 183 183 180 180 183 186 193 191 197 203 213 219 225 242 254 274 271 261 259 264 264 259 251 249 239 247 255 278 296 276 269 241 240 248 248 245 236
179 177 180 183 182 179 174 175 176 175 178 184 188 195 192 193 195 205 217 227 240 244 254 257 260 265 264 262 251 268 254 245 250 255 238 242 289 283 269 262 253 238 214
176 174 175 177 177 175 172 170 173 175 175 177 182 185 184 186 194 203 223 229 235 244 244 248 250 255 259 263 255 263 266 256 264 270 269 266 256 243 283 285 275 256 192
170 169 168 170 174 174 172 172 173 174 176 177 179 177 181 185 193 201 207 213 218 230 240 243 253 264 272 266 261 267 272 272 274 279 271 271 259 239 224 247 244 208 171
172 165 163 166 171 173 175 175 173 172 171 175 179 178 182 185 189 189 185 192 205 210 216 231 242 257 271 284 272 242 250 267 292 331 329 316 305 284 247 202 201 204 173
180 173 171 166 171 174 173 175 172 168 170 172 176 177 176 175 179 176 171 169 182 188 178 186 185 210 219 333 313 260 218 207 147 54 52 52 56 39 22 6 342 195 195
189 182 176 170 172 176 176 173 172 172 171 172 172 169 172 169 170 167 157 149 150 159 166 164 160 127 33 39 21 320 88 82 80 75 89 102 95 86 75 58 41 14 234
193 188 181 178 177 177 175 175 172 168 168 171 173 171 174 174 176 174 161 158 162 164 159 150 145 124 69 56 48 23 107 89 64 56 59 81 90 105 107 115 121 80 51
189 183 179 173 173 172 170 173 169 166 167 172 175 175 177 174 168 168 164 169 172 167 156 148 137 124 83 68 69 157 138 102 85 73 73 83 88 74 92 119 104 89 72
181 177 174 166 165 166 164 164 167 166 170 178 180 177 176 173 167 169 167 167 167 158 150 131 119 111 96 62 24 275 134 115 101 86 69 70 86 41 27 129 121 110 107
161 164 161 158 162 161 158 162 165 163 169 175 176 172 171 175 175 170 168 165 168 163 154 131 116 109 103 81 39 309 144 124 124 116 103 72 57 42 31 135 136 131 126
148 150 151 150 150 155 156 162 161 163 164 162 159 160 170 174 171 164 160 163 164 150 139 129 119 109 99 107 73 6 161 131 141 126 108 88 78 64 45 35 107 113 148
142 145 146 144 143 150 156 156 153 152 147 146 145 148 161 171 161 160 159 163 164 156 153 151 144 127 124 105 104 70 26 356 115 110 95 95 101 83 60 81 93 155 211
138 142 141 139 139 150 158 156 152 149 145 145 143 146 152 159 163 167 168 171 178 179 172 175 164 148 137 121 116 122 101 32 97 83 79 99 131 149 126 127 177 201 180
139 143 143 144 145 153 159 154 148 151 151 151 153 159 161 159 157 175 179 182 183 184 179 178 169 159 154 147 148 151 152 156 152 139 140 154 165 168 122 151 177 186 143
144 148 147 145 148 149 152 151 150 155 158 158 160 165 165 157 160 155 129 187 125 36 211 190 183 184 173 132 115 173 170 172 139 181 183 169 167 165 158 157 155 166 167
151 154 147 147 152 149 150 153 158 165 171 172 172 172 173 164 170 161 145 64 60 80 64 39 356 103 95 119 121 116 98 113 185 223 189 184 187 186 179 179 174 176 181